TimeCST,TemperatureF,Dew PointF,Humidity,Sea Level PressureIn,VisibilityMPH,Wind Direction,Wind SpeedMPH,Gust SpeedMPH,PrecipitationIn,Events,Conditions,WindDirDegrees,DateUTC
12:15 AM,35.6,17.6,48,29.87,10.0,WSW,4.6,-,N/A,,Clear,240,2012-11-25 06:15:00
12:35 AM,35.6,17.6,48,29.88,10.0,West,5.8,-,N/A,,Clear,260,2012-11-25 06:35:00
12:55 AM,32.0,14.0,48,29.87,10.0,WSW,9.2,-,N/A,,Clear,240,2012-11-25 06:55:00
1:15 AM,33.8,17.6,52,29.87,10.0,WSW,8.1,-,N/A,,Clear,250,2012-11-25 07:15:00
1:35 AM,30.2,15.8,55,29.87,10.0,SW,6.9,-,N/A,,Clear,220,2012-11-25 07:35:00
1:55 AM,33.8,15.8,48,29.87,10.0,WNW,8.1,-,N/A,,Clear,300,2012-11-25 07:55:00
2:15 AM,32.0,15.8,51,29.87,10.0,NW,4.6,-,N/A,,Clear,320,2012-11-25 08:15:00
2:35 AM,32.0,15.8,51,29.88,10.0,NNW,6.9,-,N/A,,Clear,340,2012-11-25 08:35:00
2:55 AM,30.2,15.8,55,29.87,10.0,NW,8.1,-,N/A,,Clear,320,2012-11-25 08:55:00
3:15 AM,30.2,15.8,55,29.87,10.0,NW,9.2,-,N/A,,Clear,320,2012-11-25 09:15:00
3:35 AM,33.8,17.6,52,29.87,10.0,NW,11.5,-,N/A,,Clear,320,2012-11-25 09:35:00
3:55 AM,35.6,17.6,48,29.88,10.0,NNW,5.8,-,N/A,,Clear,330,2012-11-25 09:55:00
4:15 AM,33.8,15.8,48,29.88,10.0,NNW,10.4,-,N/A,,Clear,330,2012-11-25 10:15:00
4:35 AM,35.6,15.8,44,29.88,10.0,NNW,10.4,-,N/A,,Clear,340,2012-11-25 10:35:00
4:55 AM,33.8,15.8,48,29.89,10.0,NNW,12.7,-,N/A,,Clear,330,2012-11-25 10:55:00
5:15 AM,33.8,17.6,52,29.89,10.0,NNW,8.1,-,N/A,,Clear,340,2012-11-25 11:15:00
5:35 AM,32.0,15.8,51,29.90,10.0,NNW,12.7,-,N/A,,Clear,330,2012-11-25 11:35:00
5:55 AM,32.0,15.8,51,29.90,10.0,NNW,12.7,-,N/A,,Clear,330,2012-11-25 11:55:00
6:15 AM,32.0,15.8,51,29.91,10.0,NW,13.8,-,N/A,,Clear,320,2012-11-25 12:15:00
6:35 AM,32.0,17.6,55,29.91,10.0,NNW,9.2,-,N/A,,Clear,340,2012-11-25 12:35:00
6:55 AM,30.2,15.8,55,29.92,10.0,North,9.2,-,N/A,,Clear,350,2012-11-25 12:55:00
7:15 AM,30.2,15.8,55,29.93,10.0,North,10.4,-,N/A,,Clear,350,2012-11-25 13:15:00
7:35 AM,30.2,17.6,60,29.93,10.0,NNW,9.2,-,N/A,,Clear,340,2012-11-25 13:35:00
7:55 AM,32.0,17.6,55,29.94,10.0,NNW,9.2,-,N/A,,Clear,340,2012-11-25 13:55:00
8:15 AM,32.0,17.6,55,29.95,10.0,NNW,10.4,-,N/A,,Clear,330,2012-11-25 14:15:00
8:35 AM,35.6,21.2,56,29.95,10.0,NNW,11.5,-,N/A,,Clear,340,2012-11-25 14:35:00
8:55 AM,37.4,21.2,52,29.95,10.0,NNW,12.7,-,N/A,,Clear,340,2012-11-25 14:55:00
9:15 AM,39.2,21.2,49,29.95,10.0,North,11.5,-,N/A,,Clear,10,2012-11-25 15:15:00
9:35 AM,42.8,24.8,49,29.95,10.0,NNE,11.5,-,N/A,,Clear,20,2012-11-25 15:35:00
9:55 AM,44.6,24.8,46,29.95,10.0,NNE,11.5,-,N/A,,Clear,20,2012-11-25 15:55:00
10:15 AM,46.4,24.8,43,29.95,10.0,NNE,11.5,-,N/A,,Clear,30,2012-11-25 16:15:00
10:35 AM,48.2,24.8,40,29.95,10.0,NE,10.4,-,N/A,,Clear,40,2012-11-25 16:35:00
10:55 AM,48.2,24.8,40,29.95,10.0,NNE,11.5,17.3,N/A,,Clear,30,2012-11-25 16:55:00
11:15 AM,51.8,24.8,35,29.95,10.0,NNE,11.5,16.1,N/A,,Clear,30,2012-11-25 17:15:00
11:35 AM,53.6,24.8,33,29.95,10.0,NNE,9.2,-,N/A,,Clear,30,2012-11-25 17:35:00
11:55 AM,53.6,24.8,33,29.94,10.0,NNE,9.2,-,N/A,,Clear,20,2012-11-25 17:55:00
12:15 PM,55.4,24.8,31,29.93,10.0,NE,6.9,-,N/A,,Clear,40,2012-11-25 18:15:00
12:35 PM,55.4,24.8,31,29.92,10.0,ENE,9.2,-,N/A,,Clear,70,2012-11-25 18:35:00
12:55 PM,57.2,24.8,29,29.91,10.0,NE,8.1,-,N/A,,Clear,50,2012-11-25 18:55:00
1:15 PM,57.2,24.8,29,29.90,10.0,NNE,6.9,-,N/A,,Clear,30,2012-11-25 19:15:00
1:35 PM,57.2,24.8,29,29.89,10.0,NNE,9.2,-,N/A,,Clear,30,2012-11-25 19:35:00
1:55 PM,59.0,24.8,27,29.88,10.0,NE,8.1,-,N/A,,Clear,40,2012-11-25 19:55:00
2:15 PM,59.0,24.8,27,29.88,10.0,NNE,6.9,-,N/A,,Clear,30,2012-11-25 20:15:00
2:35 PM,60.8,24.8,25,29.87,10.0,NE,9.2,-,N/A,,Clear,50,2012-11-25 20:35:00
2:55 PM,60.8,24.8,25,29.86,10.0,NE,8.1,-,N/A,,Clear,40,2012-11-25 20:55:00
3:15 PM,60.8,24.8,25,29.86,10.0,ENE,8.1,-,N/A,,Clear,60,2012-11-25 21:15:00
3:35 PM,60.8,24.8,25,29.86,10.0,East,8.1,-,N/A,,Clear,80,2012-11-25 21:35:00
3:55 PM,60.8,24.8,25,29.86,10.0,East,9.2,-,N/A,,Clear,90,2012-11-25 21:55:00
4:15 PM,60.8,24.8,25,29.86,10.0,ENE,6.9,-,N/A,,Clear,70,2012-11-25 22:15:00
4:35 PM,60.8,23.0,23,29.86,10.0,East,9.2,-,N/A,,Clear,90,2012-11-25 22:35:00
4:55 PM,57.2,23.0,27,29.86,10.0,East,5.8,-,N/A,,Clear,80,2012-11-25 22:55:00
5:15 PM,57.2,23.0,27,29.86,10.0,ENE,6.9,-,N/A,,Clear,70,2012-11-25 23:15:00
5:35 PM,55.4,23.0,29,29.86,10.0,ENE,5.8,-,N/A,,Clear,60,2012-11-25 23:35:00
5:55 PM,53.6,21.2,28,29.86,10.0,ENE,5.8,-,N/A,,Clear,70,2012-11-25 23:55:00
6:15 PM,51.8,21.2,30,29.86,10.0,East,5.8,-,N/A,,Clear,80,2012-11-26 00:15:00
6:35 PM,51.8,21.2,30,29.87,10.0,ENE,5.8,-,N/A,,Clear,70,2012-11-26 00:35:00
6:55 PM,48.2,21.2,34,29.87,10.0,ENE,8.1,-,N/A,,Clear,70,2012-11-26 00:55:00
7:15 PM,48.2,21.2,34,29.87,10.0,East,10.4,-,N/A,,Clear,90,2012-11-26 01:15:00
7:35 PM,48.2,21.2,34,29.88,10.0,East,9.2,-,N/A,,Clear,80,2012-11-26 01:35:00
7:55 PM,48.2,21.2,34,29.89,10.0,ENE,8.1,-,N/A,,Clear,70,2012-11-26 01:55:00
8:15 PM,46.4,21.2,37,29.89,10.0,ENE,8.1,-,N/A,,Clear,70,2012-11-26 02:15:00
8:35 PM,44.6,21.2,39,29.90,10.0,ENE,8.1,-,N/A,,Clear,60,2012-11-26 02:35:00
8:55 PM,44.6,21.2,39,29.90,10.0,East,8.1,-,N/A,,Clear,80,2012-11-26 02:55:00
9:15 PM,44.6,21.2,39,29.90,10.0,East,11.5,-,N/A,,Clear,80,2012-11-26 03:15:00
9:35 PM,42.8,21.2,42,29.90,10.0,East,10.4,-,N/A,,Clear,80,2012-11-26 03:35:00
9:55 PM,42.8,21.2,42,29.90,10.0,East,9.2,-,N/A,,Clear,80,2012-11-26 03:55:00
10:15 PM,42.8,21.2,42,29.90,10.0,East,9.2,-,N/A,,Clear,80,2012-11-26 04:15:00
10:35 PM,39.2,21.2,49,29.90,10.0,ENE,9.2,-,N/A,,Clear,70,2012-11-26 04:35:00
10:55 PM,39.2,21.2,49,29.91,10.0,ENE,8.1,-,N/A,,Clear,70,2012-11-26 04:55:00
11:15 PM,37.4,21.2,52,29.91,10.0,ENE,6.9,-,N/A,,Clear,60,2012-11-26 05:15:00
11:35 PM,37.4,21.2,52,29.91,10.0,ENE,6.9,-,N/A,,Clear,60,2012-11-26 05:35:00
11:55 PM,35.6,21.2,56,29.92,10.0,NE,5.8,-,N/A,,Clear,50,2012-11-26 05:55:00